This is the latest recevied weather packets stored in our database for station/object JS2QVS-13. If no packets are shown the sender has not sent any weather packets the latest 10 day(s).
| Time | Temp. | Humidity | Pressure | Rain* | Wind** | Luminosity | Snow |
|---|---|---|---|---|---|---|---|
| 1777958263 | 20° C | 39% | 1016.6 hPa | 0 mm | - | - | - |
| 1777957663 | 20.56° C | 42% | 1016.8 hPa | 0 mm | - | - | - |
| 1777957063 | 20° C | 42% | 1016.8 hPa | 0 mm | - | - | - |
| 1777956462 | 20° C | 41% | 1016.7 hPa | 0 mm | - | - | - |
| 1777955862 | 20.56° C | 41% | 1016.7 hPa | 0 mm | - | - | - |
| 1777955262 | 20.56° C | 41% | 1016.7 hPa | 0 mm | - | - | - |
| 1777954662 | 20.56° C | 43% | 1016.7 hPa | 0 mm | - | - | - |
| 1777954062 | 20.56° C | 40% | 1016.7 hPa | 0 mm | - | - | - |
| 1777953463 | 20.56° C | 43% | 1016.7 hPa | 0 mm | - | - | - |
| 1777952863 | 20.56° C | 42% | 1016.7 hPa | 0 mm | - | - | - |
| 1777951661 | 20.56° C | 43% | 1016.7 hPa | 0 mm | - | - | - |
| 1777950462 | 20.56° C | 42% | 1016.7 hPa | 0 mm | - | - | - |
| 1777948662 | 20° C | 42% | 1016.5 hPa | 0 mm | - | - | - |
| 1777948061 | 20° C | 45% | 1016.6 hPa | 0 mm | - | - | - |
| 1777946261 | 20° C | 46% | 1016.5 hPa | 0 mm | - | - | - |
| 1777945662 | 20° C | 47% | 1016.4 hPa | 0 mm | - | - | - |
| 1777945063 | 20° C | 47% | 1016.4 hPa | 0 mm | - | - | - |
| 1777944463 | 20° C | 44% | 1016.5 hPa | 0 mm | - | - | - |
| 1777943863 | 20° C | 45% | 1016.3 hPa | 0 mm | - | - | - |
| 1777943262 | 20° C | 44% | 1016.4 hPa | 0 mm | - | - | - |
| 1777942662 | 20° C | 44% | 1016.5 hPa | 0 mm | - | - | - |
| 1777942062 | 19.44° C | 45% | 1016.4 hPa | 0 mm | - | - | - |
| 1777941462 | 18.89° C | 46% | 1016.3 hPa | 0 mm | - | - | - |
| 1777940262 | 18.89° C | 46% | 1016.3 hPa | 0 mm | - | - | - |
| 1777939662 | 18.89° C | 45% | 1016.4 hPa | 0 mm | - | - | - |
* Rain latest hour (hover to see other rain measurements)
** Current wind speed in m/s (hover to see current wind gust speed)